GFSWCAN_250_rhum_252.txt.gz
RH
10 9 9 12 14 14 15 17 20 20 22 26 28 25 25 31 30 34 47 36 32 39 41 42 39 43 44 44 46 54 50 45 47 45 39 43 42 42 47 65 91 83 72 63 58 83 100 100 99 100 78 72 78 81
7 9 10 10 11 14 13 14 15 16 15 16 17 19 19 21 30 33 34 28 30 30 33 40 44 45 46 49 47 47 46 52 48 44 46 50 53 44 42 64 83 100 98 94 100 100 100 100 100 77 75 79 72 93
8 8 8 10 11 12 11 10 12 14 17 17 16 16 17 20 24 25 28 28 30 25 30 36 38 40 49 52 55 55 51 48 54 48 45 49 45 48 44 65 98 86 92 97 90 86 79 73 71 76 78 86 87 90
7 7 9 9 10 11 11 10 9 10 11 14 15 17 18 18 20 22 23 27 26 24 26 35 41 52 50 52 47 48 49 42 44 47 43 42 44 47 49 63 74 85 91 100 99 98 92 84 70 76 81 91 99 87
9 6 6 9 10 11 11 10 10 10 11 12 12 12 13 13 15 16 14 17 22 23 24 40 46 44 48 48 50 50 54 56 55 49 39 46 48 47 46 49 68 92 100 100 100 100 100 87 76 66 77 100 82 82
9 10 9 8 8 10 10 10 10 10 10 11 12 13 13 16 17 18 16 19 22 26 26 31 32 37 39 42 40 43 47 48 49 49 45 46 49 41 44 60 80 99 96 92 100 100 93 90 97 69 91 86 86 79
8 9 10 10 8 9 10 10 10 10 10 10 11 12 14 16 18 20 24 30 35 35 36 36 36 36 38 39 42 41 44 50 50 44 43 49 46 41 42 49 100 85 88 100 100 100 100 92 97 82 100 84 96 87
7 8 10 11 10 9 9 10 10 10 10 11 12 13 15 16 17 17 22 24 28 26 28 29 28 32 34 36 44 49 47 46 41 40 40 43 44 39 38 85 95 94 99 100 100 89 93 100 83 98 90 96 98 95
8 8 9 11 11 11 10 9 10 10 11 11 12 13 13 12 14 22 25 30 32 27 26 24 26 29 30 34 40 45 44 36 37 34 42 41 37 35 84 76 74 98 100 100 91 100 100 99 86 95 100 92 97 99
10 8 10 10 10 11 11 11 10 10 11 12 12 11 8 10 15 16 18 19 19 15 14 16 23 27 28 34 35 38 38 34 28 36 39 33 43 63 71 86 100 100 100 94 100 96 91 83 100 100 100 100 100 99
12 8 9 11 11 11 10 11 11 11 11 9 8 8 12 15 18 19 22 20 15 14 13 20 25 30 38 40 42 39 32 31 29 42 42 40 61 95 100 100 100 100 100 99 91 99 100 89 81 100 100 100 98 93
16 11 8 10 11 11 11 11 10 9 9 10 12 14 15 14 14 14 12 12 11 11 18 24 29 29 35 36 42 43 52 42 36 54 54 72 100 100 100 100 100 100 96 91 83 88 100 99 100 100 94 94 93 89
17 16 11 10 12 11 10 10 11 10 11 12 11 12 12 12 11 9 9 10 10 13 20 26 24 48 70 74 69 71 69 40 53 51 61 100 100 100 98 91 97 90 73 69 85 98 92 90 100 92 86 86 87 81
17 18 14 10 11 12 10 10 10 11 10 9 9 9 9 8 8 9 12 15 22 26 40 60 80 80 100 73 58 68 48 45 45 59 89 87 100 100 98 74 66 75 66 76 77 79 86 79 84 90 87 86 77 68
14 16 16 13 10 11 11 10 11 10 9 9 9 9 9 10 15 15 17 18 22 45 87 85 60 80 87 59 82 45 48 38 59 94 97 96 95 67 60 59 72 87 78 75 83 80 78 68 77 82 85 78 68 64
13 14 15 15 13 10 11 10 9 9 9 8 8 10 14 14 17 18 18 21 22 32 30 23 24 32 35 60 32 30 20 36 57 36 40 48 44 52 65 65 79 83 92 92 72 60 68 73 80 79 68 64 63 67
7 12 14 14 13 10 9 10 9 8 8 9 12 12 16 14 16 17 18 21 21 22 15 14 14 16 17 14 11 15 22 41 49 45 53 64 78 73 82 94 85 89 82 63 63 65 69 69 66 62 62 57 64 60
5 7 10 14 14 11 8 8 12 13 14 13 12 12 13 13 14 15 14 12 14 14 11 11 13 12 12 12 15 23 22 22 34 38 43 61 67 71 79 71 49 46 49 48 48 57 58 48 55 58 55 59 55 60
5 5 6 9 11 13 11 10 16 18 17 16 14 12 12 12 13 15 11 10 12 11 11 10 10 12 14 15 17 15 15 15 14 14 20 27 30 30 29 30 32 40 37 39 41 39 46 53 51 54 52 55 60 78
4 4 5 7 11 13 16 35 34 18 14 16 17 15 14 13 12 13 11 11 12 11 12 13 16 16 15 16 17 17 15 15 16 22 26 26 28 32 34 29 26 27 33 40 45 49 50 50 51 48 54 62 75 76
4 4 4 6 9 13 28 31 30 27 17 17 17 17 17 16 16 15 13 14 14 12 14 16 16 19 20 16 16 14 16 19 22 25 28 26 25 25 23 27 33 38 47 51 49 50 52 44 48 53 67 63 70 73
4 4 5 5 9 17 24 33 42 42 41 23 17 12 13 16 16 17 20 22 20 17 15 16 18 18 18 18 17 17 18 20 21 22 22 23 26 29 33 36 42 46 44 46 51 43 46 51 60 60 65 63 65 77
5 6 6 7 12 19 28 27 32 28 21 19 17 15 16 20 23 26 30 27 24 26 29 30 31 32 32 30 28 29 28 27 27 28 29 30 32 38 38 33 32 39 42 39 44 51 57 59 67 71 70 63 68 89
7 8 8 11 17 21 21 20 22 22 17 16 17 17 20 22 26 29 24 22 23 24 24 23 23 23 26 27 26 25 23 21 21 24 28 34 33 25 24 27 33 37 44 53 54 60 73 70 69 66 63 67 65 64
7 7 9 11 13 19 22 24 27 28 32 34 37 38 36 32 30 26 22 19 18 17 15 14 14 15 15 16 16 17 17 17 19 20 18 17 20 26 36 45 50 61 69 76 80 82 76 75 72 79 79 66 60 57
8 12 16 21 25 21 25 31 40 54 63 78 74 51 35 32 26 21 20 18 16 14 14 14 15 16 16 17 21 22 20 18 17 18 23 33 46 54 64 71 77 82 87 97 94 80 77 81 85 77 62 60 53 53
15 18 19 21 29 34 44 63 74 85 86 74 65 54 45 37 33 34 32 34 32 29 28 27 24 22 25 26 26 27 24 27 35 46 53 62 71 80 90 87 89 99 100 94 82 79 78 74 68 69 65 59 55 55
19 21 22 26 29 48 66 72 79 86 74 67 59 51 46 44 43 43 41 36 32 33 32 32 34 34 32 27 30 35 46 54 58 62 73 91 99 100 97 88 92 91 83 80 86 87 87 83 72 64 60 57 57 56
28 30 37 49 57 66 75 76 74 63 47 48 51 48 39 32 51 52 52 46 44 41 41 40 42 38 37 40 48 59 59 64 79 99 100 100 97 87 94 93 86 88 97 99 91 86 74 66 59 54 51 50 50 50
35 42 48 51 53 58 60 49 42 42 48 41 36 34 36 45 64 55 53 51 52 50 50 46 47 44 45 57 67 71 91 100 100 99 99 94 97 98 89 86 94 100 96 83 73 68 62 58 55 52 50 51 50 49
37 40 42 45 42 38 36 33 33 32 34 34 28 30 34 43 66 71 59 58 49 56 48 52 48 48 66 75 96 100 100 100 100 92 88 87 93 94 98 100 97 81 80 79 67 63 61 60 57 53 52 51 48 48
39 44 43 42 41 41 41 40 39 38 38 39 37 38 35 58 62 60 56 52 54 50 50 53 57 86 100 100 100 100 100 100 96 88 84 89 98 100 100 98 92 88 79 74 72 68 61 58 56 53 53 51 48 51
53 52 43 36 30 24 22 21 21 22 25 28 30 36 43 55 66 61 53 48 46 54 59 89 100 100 100 97 90 91 97 90 83 90 100 100 100 99 97 97 80 73 75 80 78 64 55 55 54 53 52 50 51 53

GFSWCAN_250_rhum_258.txt.gz
RH
7 11 13 12 15 13 14 18 26 32 33 37 41 37 40 48 52 48 41 34 33 30 30 25 25 29 25 25 22 25 27 26 28 28 30 33 30 33 34 35 33 32 32 35 34 38 42 45 42 43 50 44 38 39
5 6 8 10 11 12 12 15 19 24 33 41 46 53 48 41 42 46 52 49 44 32 30 29 34 33 31 31 32 26 28 29 28 28 30 27 28 31 32 33 34 34 42 39 40 40 42 46 47 43 38 41 41 43
5 5 6 6 7 9 12 13 18 26 35 49 42 47 51 48 38 35 40 49 49 41 38 29 36 39 46 42 31 30 32 29 27 26 28 28 24 28 33 34 29 32 38 38 39 44 44 47 46 46 39 39 40 45
5 5 5 5 6 6 8 11 18 22 27 33 41 40 43 49 52 46 43 43 45 43 40 45 39 36 39 37 38 31 30 32 30 27 28 27 27 26 30 32 32 34 34 40 39 46 50 58 54 38 43 40 44 51
6 6 6 6 6 7 8 11 13 16 19 24 27 30 36 38 40 42 52 52 43 35 33 30 32 35 37 39 36 30 32 28 33 32 32 33 25 25 30 30 34 34 34 35 37 51 61 71 61 41 41 47 56 58
8 8 7 8 8 9 10 11 12 14 16 18 17 18 20 24 29 31 35 38 42 38 39 32 31 32 34 40 38 39 36 34 25 23 28 28 29 22 26 30 34 38 34 32 40 47 61 66 59 49 56 58 51 51
9 9 9 9 10 10 13 12 14 11 11 12 10 10 13 19 26 34 36 35 39 43 38 31 27 28 31 31 29 30 28 29 28 24 24 25 24 23 23 26 55 47 40 42 48 56 57 44 48 63 63 50 43 48
8 9 10 10 10 12 14 14 15 14 13 14 12 10 9 9 10 15 22 26 26 30 30 26 24 25 23 30 32 31 28 29 27 25 26 29 23 22 22 45 61 36 44 52 57 50 45 45 49 55 50 44 40 48
10 8 9 11 13 15 17 18 18 17 18 16 12 10 11 10 9 9 9 11 14 16 18 22 25 26 23 23 25 26 28 27 23 24 27 26 24 24 41 47 37 34 44 66 69 44 38 49 56 49 44 38 46 57
11 10 10 10 12 14 15 16 17 18 17 13 11 7 6 9 10 10 10 10 10 10 11 16 18 20 22 24 26 25 26 29 28 27 24 24 27 32 32 30 34 36 40 52 47 41 48 42 41 45 42 46 50 62
11 13 14 13 13 13 12 13 14 17 17 14 11 10 10 12 10 10 9 10 10 10 12 15 16 17 21 22 25 27 26 23 22 26 26 28 31 28 28 29 27 27 31 37 42 41 38 41 45 36 45 48 58 69
21 20 14 14 14 13 14 15 15 14 14 13 14 13 13 12 11 9 8 9 10 11 13 16 19 20 21 22 23 23 24 23 26 23 20 19 23 26 28 26 26 29 32 33 32 33 46 51 41 36 41 47 53 70
35 35 27 17 12 12 12 12 13 13 14 13 12 10 8 7 6 6 8 10 14 19 22 21 18 16 18 18 19 20 19 20 23 24 26 31 31 31 27 26 25 24 22 22 36 55 51 45 39 38 47 53 55 61
29 33 33 27 24 20 15 12 13 14 13 11 10 6 7 6 7 11 17 21 22 18 18 17 13 13 16 16 18 20 19 18 18 21 31 26 20 29 40 47 60 32 33 42 47 44 44 48 60 64 61 57 59 60
24 29 31 33 32 30 30 24 14 12 10 10 11 9 9 11 15 18 19 21 25 18 15 12 11 14 16 17 17 15 14 16 21 36 34 38 45 53 71 66 49 46 50 52 47 49 56 60 56 56 63 75 67 64
20 25 32 34 38 39 34 17 11 11 11 12 12 15 18 19 19 18 17 15 11 10 11 10 11 12 11 12 13 14 17 24 54 62 61 53 45 53 77 69 63 65 66 57 52 54 57 54 58 68 77 75 65 66
20 31 36 40 39 29 18 13 13 15 15 19 19 19 16 12 12 12 13 15 12 13 12 12 11 12 13 12 18 19 28 69 78 69 69 56 44 42 49 51 62 72 77 68 54 52 54 56 69 76 75 70 70 80
22 24 27 29 24 18 19 14 17 17 17 17 17 15 14 12 13 13 13 11 12 13 10 11 11 12 13 15 18 27 39 54 50 51 67 36 36 48 56 70 66 63 67 58 52 48 56 59 63 76 80 78 84 79
16 20 22 20 18 38 40 23 19 16 15 14 14 14 14 14 15 13 12 12 11 9 9 9 9 11 12 15 20 23 30 35 40 41 46 34 42 46 42 45 51 53 49 52 54 58 61 64 65 65 70 68 61 64
12 14 17 19 21 38 42 30 16 17 16 15 16 15 13 13 12 11 12 13 12 11 10 9 12 14 13 15 15 16 19 24 27 31 28 28 32 28 32 37 46 50 46 44 43 46 52 54 52 50 48 47 52 47
10 13 15 16 18 37 56 34 19 16 18 17 14 14 14 12 12 11 11 11 11 10 14 14 14 13 13 14 15 15 15 16 18 25 29 28 33 41 44 45 42 34 29 27 29 28 29 29 26 36 40 36 34 44
8 10 12 16 18 53 77 48 21 13 14 16 16 14 14 13 11 9 8 10 13 14 12 12 12 13 14 15 15 16 17 18 20 22 25 32 30 25 22 22 22 18 16 16 18 21 24 24 28 34 34 40 42 50
7 7 9 14 22 52 60 29 17 14 14 18 13 13 13 11 11 12 14 17 17 16 14 13 13 14 16 16 17 18 18 17 15 15 16 15 14 14 15 14 14 14 15 18 21 24 27 32 37 36 44 52 49 50
8 7 7 11 24 50 36 26 18 17 15 15 14 15 15 13 15 17 17 19 18 19 19 17 17 16 16 15 15 14 13 14 15 15 14 15 15 15 16 18 19 20 22 24 26 27 30 39 45 50 53 63 68 58
6 6 7 12 30 35 24 20 19 19 17 20 21 18 16 18 16 14 14 14 16 18 17 16 15 14 13 13 14 14 13 13 14 15 16 18 19 19 18 19 21 22 24 27 34 45 50 48 50 69 81 66 59 75
8 8 10 11 17 19 17 20 29 24 17 18 20 22 20 17 15 16 17 16 15 16 16 15 14 14 13 13 13 13 14 16 18 19 18 17 17 18 21 23 27 33 41 47 49 49 53 67 75 67 61 84 79 76
8 8 8 8 10 13 19 25 25 29 35 33 31 24 21 20 19 20 20 20 20 21 20 19 19 17 16 17 17 18 21 22 23 24 24 26 28 29 35 41 46 47 47 48 58 73 74 74 83 96 88 90 90 71
7 6 7 8 12 17 21 31 44 46 47 46 34 25 24 24 24 23 25 26 25 23 23 23 23 24 26 31 31 33 32 34 35 35 37 37 42 48 48 48 47 55 74 86 90 94 96 94 97 100 92 69 63 64
6 6 8 11 15 25 41 56 59 52 38 30 27 22 22 21 21 23 26 27 27 27 29 30 28 27 27 29 31 32 31 32 34 34 40 48 50 46 48 66 91 94 93 98 100 96 97 100 84 73 74 77 78 73
8 9 13 18 23 34 46 56 47 33 24 21 20 18 21 24 25 28 28 25 23 22 22 20 18 19 21 22 22 22 22 25 32 41 44 44 54 75 93 93 95 100 100 95 94 99 89 76 73 84 88 81 76 70
10 14 20 26 34 47 58 53 40 32 23 23 32 48 55 51 42 34 26 22 20 19 20 19 18 18 20 20 21 23 26 28 33 46 73 87 94 96 97 97 99 92 83 91 91 82 78 84 96 100 90 78 71 68
17 22 28 34 51 58 64 51 36 33 39 58 68 72 68 57 48 45 42 36 29 22 21 20 21 21 22 26 27 28 32 50 80 88 95 97 100 98 100 99 84 79 94 92 91 88 86 97 99 95 80 77 71 65
33 39 46 60 66 65 59 51 45 55 76 84 81 76 64 55 48 41 41 38 34 29 26 23 23 28 34 33 38 56 81 90 97 100 100 100 100 97 95 82 91 99 92 85 86 93 100 100 95 94 91 79 69 64

GFSWCAN_250_rhum_261.txt.gz
RH
5 6 7 8 9 13 16 18 23 35 33 28 37 49 48 49 51 39 35 36 36 32 29 27 26 29 33 43 43 47 46 44 42 29 24 22 23 22 23 26 28 28 26 29 27 27 35 36 41 38 36 39 36 32
4 6 8 10 11 13 17 19 19 25 40 40 38 51 66 51 52 43 42 41 40 39 36 36 32 30 25 26 27 25 25 24 22 23 22 22 20 21 21 21 23 25 28 24 24 26 34 37 39 43 45 42 42 37
4 5 10 14 15 14 14 16 17 24 32 55 71 58 47 46 50 51 47 47 46 47 49 49 43 38 38 33 32 31 25 22 21 23 25 24 21 23 22 20 19 21 23 26 26 31 33 35 39 44 46 48 37 28
5 5 7 10 14 17 18 18 20 22 26 37 61 89 72 57 54 57 58 56 51 52 48 48 48 52 46 41 38 35 31 31 29 28 27 25 23 20 20 20 20 23 23 25 26 30 32 37 42 43 46 42 36 31
5 6 6 9 12 16 20 16 13 18 24 31 42 60 85 93 88 66 51 47 54 59 54 51 51 48 49 48 46 42 36 32 34 36 35 36 30 26 21 18 19 25 26 23 26 32 37 45 49 52 48 36 34 37
6 6 6 6 10 14 19 20 16 16 23 30 36 46 54 64 86 83 74 58 54 61 55 51 52 50 52 49 44 44 48 59 50 40 38 31 25 25 23 20 26 30 29 29 28 37 42 51 60 57 47 34 29 32
6 6 6 7 8 10 15 20 22 19 21 33 30 37 36 37 44 59 63 73 78 77 71 55 49 47 53 55 53 53 49 46 52 44 39 32 28 26 22 23 54 55 44 32 32 34 41 48 52 53 48 35 31 38
6 7 6 6 7 8 12 18 20 23 25 33 37 40 44 43 36 37 48 59 70 76 72 59 52 54 55 53 49 53 56 49 45 48 44 34 25 25 19 39 86 68 45 28 36 43 48 48 45 43 45 40 42 50
7 7 6 6 8 9 8 10 14 19 27 30 38 46 53 62 54 43 40 45 56 65 76 79 72 67 58 56 48 43 36 38 35 37 39 34 27 22 39 58 60 49 36 33 41 50 49 48 47 42 41 43 50 46
10 9 8 8 8 9 10 10 13 16 21 26 24 21 25 26 29 28 35 37 36 35 39 44 45 51 51 44 40 34 33 30 26 28 26 25 25 38 45 52 53 51 36 36 52 60 51 35 37 42 42 42 39 36
9 8 9 10 10 11 12 12 13 15 17 18 17 16 14 14 12 10 12 16 20 23 28 33 32 31 25 21 19 19 20 22 21 25 24 23 31 50 52 53 46 42 39 45 53 51 44 38 35 35 39 40 35 34
9 10 9 11 12 12 14 18 17 23 25 23 23 23 20 14 10 9 6 6 9 11 14 16 18 17 17 18 18 20 20 20 22 25 26 26 43 42 45 38 40 44 42 39 39 43 42 42 40 35 32 30 33 37
12 10 10 12 13 15 16 18 22 23 29 29 24 16 12 8 6 4 6 9 11 19 14 11 11 10 10 10 11 11 12 12 13 14 19 28 37 38 33 36 35 34 36 39 42 40 36 32 25 24 28 33 36 38
13 13 13 13 13 12 12 16 20 22 23 16 13 12 9 7 8 12 14 14 13 13 12 11 11 10 10 11 12 13 12 11 12 15 24 30 28 29 30 33 32 30 32 31 27 23 24 22 29 44 44 38 37 35
20 14 14 17 17 16 16 17 17 16 14 12 10 9 10 9 12 16 20 22 19 17 19 20 18 13 11 11 11 10 9 13 18 28 33 32 30 29 31 31 31 28 24 23 26 29 29 36 41 40 41 51 63 54
30 26 22 19 18 22 20 18 14 14 14 12 12 14 16 17 19 20 24 26 25 24 21 17 14 13 12 10 8 10 12 19 29 33 30 27 24 24 25 24 29 30 28 25 24 27 32 34 39 54 64 68 58 56
32 42 42 39 38 35 32 27 26 29 28 30 27 23 17 16 16 18 18 17 16 16 15 12 12 11 6 8 10 14 21 28 19 20 21 21 22 24 28 29 25 22 23 26 32 42 55 59 59 66 58 62 66 78
31 34 34 35 44 40 47 58 57 38 25 16 13 11 10 10 11 10 10 10 11 12 11 9 7 7 8 10 14 19 22 20 19 19 21 18 20 21 23 24 26 30 39 48 51 49 47 47 54 53 58 77 85 80
28 27 28 35 42 60 87 95 74 27 17 16 14 15 14 12 12 12 12 10 10 9 9 9 8 10 12 16 16 18 19 18 12 10 11 12 15 20 22 28 37 46 45 48 50 50 51 49 52 58 67 70 63 52
18 23 28 37 49 71 99 74 41 45 40 23 20 19 16 15 14 12 11 11 10 8 8 10 15 12 11 13 13 12 11 11 11 12 13 15 18 22 28 39 47 42 37 34 35 35 38 46 53 48 44 46 55 60
12 16 20 27 53 87 89 60 43 41 23 19 18 18 18 16 14 13 12 11 12 14 13 15 14 14 15 14 13 12 12 12 13 14 16 17 18 20 22 29 31 30 28 28 32 35 40 39 34 34 41 45 48 54
12 13 16 24 46 77 77 47 30 24 18 18 18 16 15 14 12 12 10 14 14 14 13 12 11 11 12 13 14 13 13 16 18 18 17 16 17 22 27 26 26 27 29 27 26 28 30 33 34 38 43 45 40 40
11 13 19 32 69 79 62 38 27 34 17 16 16 15 15 13 14 17 19 16 16 15 14 14 14 16 15 13 13 14 14 15 16 16 16 18 22 23 22 25 25 22 20 21 27 28 25 24 27 28 29 32 31 36
10 10 14 26 61 75 56 43 27 37 22 17 16 15 14 15 18 22 20 16 15 17 16 16 16 16 16 15 16 16 15 16 17 17 18 19 20 20 19 15 14 14 16 17 17 18 18 19 23 25 29 36 41 52
8 8 12 23 46 60 55 38 30 36 30 19 18 18 18 19 19 20 18 19 18 17 16 16 15 16 16 16 16 15 15 15 14 15 15 14 12 13 14 16 17 16 16 17 19 20 24 28 31 35 39 51 54 53
7 8 12 27 43 47 39 29 30 34 31 21 18 19 18 17 15 15 17 18 16 15 13 15 16 16 16 15 15 14 13 12 12 12 13 14 16 17 17 16 18 22 25 26 28 29 30 35 48 53 52 60 76 78
8 12 18 24 34 32 20 20 28 36 33 24 21 18 16 14 14 16 19 20 17 13 12 13 12 12 12 12 12 12 12 13 14 15 15 16 18 19 22 25 25 25 28 28 30 40 56 56 57 71 83 80 74 79
14 11 13 16 17 14 15 26 43 47 36 30 28 21 18 16 17 17 16 15 14 13 13 13 13 13 13 13 14 14 16 17 19 19 19 19 20 22 22 23 25 29 36 46 58 61 65 80 89 85 74 76 68 66
10 9 8 8 10 14 24 44 57 47 40 35 27 22 22 22 20 19 17 16 16 15 14 14 15 16 16 15 16 18 19 18 17 19 20 22 23 26 29 34 41 51 60 62 66 78 90 91 77 75 73 76 73 72
9 8 8 8 10 18 36 47 49 47 39 30 27 23 24 28 24 21 20 20 20 21 21 21 22 21 20 20 20 19 20 22 28 30 32 37 35 38 46 56 63 65 69 81 90 88 80 79 74 80 78 76 76 65
8 8 9 10 14 22 38 54 55 52 46 38 30 27 29 28 27 26 26 27 27 28 26 25 29 32 31 30 31 32 34 37 40 41 42 42 46 54 61 64 67 83 89 85 79 83 78 75 87 84 82 78 71 72
8 8 10 14 20 31 41 44 45 41 34 29 32 31 29 31 33 31 29 31 32 33 31 29 27 26 26 28 30 33 33 35 37 39 44 52 58 61 66 88 98 91 81 83 83 75 80 94 94 86 82 83 81 82
9 12 17 25 37 39 36 33 33 30 32 36 37 33 32 33 29 23 22 22 21 20 19 19 19 20 23 24 24 24 26 29 35 44 51 55 62 82 97 90 86 87 87 83 89 97 100 95 89 88 92 92 96 94

GFSWCAN_250_rhum_264.txt.gz
RH
4 6 7 8 8 9 12 18 19 20 21 22 26 34 38 40 41 40 36 37 35 36 42 48 70 93 98 100 100 100 100 100 100 100 100 99 100 100 96 100 100 92 84 81 78 72 66 46 42 33 32 31 32 34
4 5 7 7 8 8 9 11 15 16 17 19 21 34 40 35 40 46 43 40 44 40 37 43 48 72 76 74 85 94 95 98 100 100 100 100 98 94 91 85 84 86 83 77 72 67 49 34 24 26 30 36 37 38
4 4 5 6 7 7 7 9 11 15 16 24 23 31 39 40 41 44 46 48 48 42 56 55 46 50 60 63 68 75 80 82 82 82 81 82 82 84 84 85 83 78 71 64 59 44 28 22 24 25 26 33 36 39
4 4 4 4 5 6 7 8 11 16 21 26 30 26 32 39 40 45 48 47 50 52 50 48 45 49 55 57 60 59 55 58 64 71 72 73 74 69 68 63 50 40 36 31 29 27 25 23 23 25 25 27 31 33
4 4 4 4 4 5 6 9 12 18 24 30 32 32 32 34 44 47 52 50 51 52 51 56 50 49 54 57 51 44 42 39 36 36 35 35 34 31 27 23 22 27 27 23 22 26 24 27 27 27 30 29 28 28
4 4 4 4 6 6 9 12 15 19 29 40 50 41 37 36 42 48 53 52 49 50 54 55 67 77 72 66 58 56 59 58 52 44 38 32 30 30 26 25 36 41 44 35 28 25 29 32 38 39 35 36 39 35
4 4 4 4 6 7 9 15 18 23 27 44 53 42 53 49 47 40 50 66 67 64 67 72 81 90 93 88 81 78 71 64 58 52 45 41 37 36 31 32 47 49 68 48 43 32 37 40 37 43 56 60 50 40
5 5 4 5 6 8 10 14 20 24 29 39 38 44 64 83 76 61 55 62 64 71 69 63 65 68 79 91 89 75 64 56 53 54 52 52 52 48 37 54 63 72 84 73 46 30 36 47 54 63 61 55 54 54
5 5 5 5 6 10 11 15 21 29 41 62 78 82 74 88 84 66 57 52 52 55 62 74 90 92 83 84 82 76 64 59 58 59 55 52 44 38 52 61 53 69 83 74 31 31 46 59 67 71 63 57 54 57
6 6 6 6 9 13 17 22 30 33 41 41 54 63 63 72 75 66 59 60 63 67 60 56 62 73 79 79 86 87 86 69 58 61 49 42 39 56 67 64 58 65 58 43 39 50 69 78 91 71 64 57 65 60
7 6 7 8 9 17 21 26 20 19 29 31 36 40 44 48 45 50 40 41 55 66 71 63 62 68 63 60 57 53 52 46 49 55 50 44 43 67 75 53 50 45 46 58 55 62 81 86 79 74 62 61 60 57
7 7 8 9 10 16 23 26 30 28 26 28 33 42 35 42 54 53 45 30 40 46 53 58 63 61 56 55 53 54 52 45 40 37 31 27 36 57 56 32 32 38 40 43 48 53 58 73 89 64 50 54 52 46
8 8 9 9 10 11 15 20 25 26 28 30 30 40 39 42 47 48 44 37 34 37 38 40 37 36 39 36 34 34 31 33 32 32 34 47 54 68 30 29 29 30 35 39 40 41 41 43 48 55 44 46 42 43
9 9 10 12 11 13 14 13 16 19 19 23 32 37 40 52 60 57 49 47 40 36 33 34 32 30 26 23 23 24 23 21 32 40 51 54 54 23 24 24 26 26 27 28 30 34 38 41 42 41 42 42 41 35
10 10 10 12 14 13 12 13 16 20 21 25 23 26 28 27 28 24 15 14 14 13 11 11 11 11 11 10 11 11 13 15 15 19 22 17 10 10 11 12 11 12 15 18 22 25 25 27 28 27 28 31 35 36
11 12 11 12 14 14 15 18 16 18 20 19 20 25 24 21 21 19 20 21 24 22 20 19 16 12 13 13 13 14 11 14 20 19 17 11 9 11 12 12 11 12 14 16 19 21 22 23 26 27 29 32 30 31
13 14 14 14 15 16 16 15 13 12 12 12 19 25 27 29 30 33 39 31 26 22 21 19 17 14 10 9 10 12 15 15 12 12 12 10 9 9 10 12 13 14 16 17 19 22 24 27 30 30 27 27 34 45
24 18 18 18 20 19 17 18 20 18 24 39 40 44 42 37 37 32 31 26 20 17 13 11 9 8 8 11 14 16 14 11 12 12 9 8 8 10 11 11 12 14 16 20 22 26 29 27 26 28 30 33 37 42
40 33 22 19 20 20 23 23 25 37 42 45 51 48 42 30 20 14 12 11 10 10 9 8 7 9 15 12 12 11 10 10 10 10 10 9 10 11 13 13 12 14 16 18 20 20 21 23 24 23 25 33 40 46
52 53 56 55 43 33 36 54 78 91 66 46 33 26 29 34 32 28 21 18 17 14 13 19 28 27 17 9 9 10 11 12 12 10 9 10 12 12 14 14 14 15 16 17 18 18 18 18 21 25 34 42 45 44
33 37 45 52 66 78 97 86 62 41 35 38 39 46 66 63 46 40 27 20 19 22 22 19 14 11 9 9 11 12 13 12 11 11 12 14 14 16 16 16 16 14 14 15 16 17 17 19 24 30 36 37 38 37
32 36 46 56 70 70 68 66 58 48 45 52 57 52 34 22 16 14 14 17 16 12 12 11 12 10 9 11 12 13 14 12 12 13 13 12 13 15 16 17 16 14 14 15 16 17 22 32 38 39 36 37 36 36
35 43 53 55 58 66 56 43 43 46 48 41 29 17 13 14 16 21 18 13 12 14 14 14 14 16 15 13 15 13 11 11 11 11 12 11 10 14 17 16 16 18 17 17 20 24 28 33 38 39 35 34 39 41
33 35 46 51 50 52 43 43 43 52 55 53 37 22 18 19 22 21 17 16 15 17 17 16 17 16 14 14 11 10 11 11 12 12 12 13 16 19 18 17 16 16 17 21 28 33 35 33 34 38 36 30 26 25
15 18 22 38 49 52 48 34 38 51 61 58 46 27 24 23 24 19 15 13 15 15 16 17 17 17 14 14 14 13 13 13 13 13 13 13 13 12 12 13 15 21 28 33 36 34 29 26 23 20 20 21 24 29
11 19 28 45 53 45 30 31 31 39 48 57 49 35 27 28 23 19 18 17 16 14 14 15 16 15 14 14 14 13 13 13 13 12 12 12 13 15 17 19 21 21 21 19 16 15 16 17 18 20 24 31 40 55
19 35 44 44 46 37 26 22 22 30 58 69 46 28 28 25 17 17 18 16 15 14 14 15 15 15 14 13 12 12 12 11 11 13 15 16 17 16 15 14 14 14 13 15 16 17 18 20 27 33 40 54 85 87
18 33 38 39 34 26 22 21 24 35 56 65 44 29 21 16 15 19 19 15 13 13 14 14 13 13 13 13 13 13 13 14 14 15 15 14 13 12 13 14 14 16 16 18 21 25 30 32 39 55 81 87 80 81
20 22 21 27 20 19 18 21 24 38 55 62 47 25 18 17 19 20 18 15 14 14 15 13 12 12 12 12 12 13 14 13 13 13 13 13 13 14 15 16 18 21 24 26 29 31 40 54 72 91 86 85 74 67
10 11 15 14 12 11 16 21 32 52 66 52 28 18 19 21 19 17 16 16 16 16 15 13 12 12 12 13 14 14 15 15 15 15 16 16 18 20 23 24 25 26 27 31 42 54 68 89 97 91 82 72 69 62
10 10 10 10 13 12 17 31 46 63 51 33 21 22 26 22 18 18 18 18 18 17 16 16 16 16 16 16 15 16 17 18 20 21 21 22 22 24 25 25 28 32 43 56 64 89 99 94 84 78 76 72 64 65
11 10 9 8 9 13 28 37 43 46 33 26 28 29 26 22 21 20 20 20 21 21 22 22 23 22 22 21 21 21 22 24 25 25 25 26 29 31 32 37 44 56 59 79 95 100 88 81 82 80 75 69 70 71
9 9 9 10 11 15 26 36 34 32 35 40 43 37 32 31 27 25 28 29 29 31 32 30 29 28 28 28 30 33 36 37 39 38 38 41 42 44 48 57 62 70 96 100 98 89 82 84 89 82 75 78 78 75